TimeEDT,TemperatureF,Dew PointF,Humidity,Sea Level PressureIn,VisibilityMPH,Wind Direction,Wind SpeedMPH,Gust SpeedMPH,PrecipitationIn,Events,Conditions,WindDirDegrees,DateUTC
12:35 AM,68.0,66.2,94,30.13,0.8,Calm,Calm,-,N/A,,Unknown,0,2013-10-04 04:35:00
12:55 AM,68.0,66.2,94,30.12,0.5,Calm,Calm,-,N/A,,Unknown,0,2013-10-04 04:55:00
1:15 AM,66.2,64.4,94,30.12,2.5,Calm,Calm,-,N/A,,Clear,0,2013-10-04 05:15:00
1:35 AM,66.2,66.2,100,30.11,0.2,Calm,Calm,-,N/A,,Unknown,0,2013-10-04 05:35:00
1:55 AM,66.2,64.4,94,30.11,0.2,Calm,Calm,-,N/A,,Unknown,0,2013-10-04 05:55:00
2:15 AM,66.2,66.2,100,30.11,0.2,Calm,Calm,-,N/A,,Unknown,0,2013-10-04 06:15:00
2:35 AM,66.2,64.4,94,30.11,3.0,Calm,Calm,-,N/A,,Clear,0,2013-10-04 06:35:00
2:55 AM,64.4,64.4,100,30.11,7.0,Calm,Calm,-,N/A,,Clear,0,2013-10-04 06:55:00
3:15 AM,64.4,64.4,100,30.10,0.8,Calm,Calm,-,N/A,,Unknown,0,2013-10-04 07:15:00
3:35 AM,64.4,62.6,94,30.11,0.2,Calm,Calm,-,N/A,,Unknown,0,2013-10-04 07:35:00
3:55 AM,64.4,62.6,94,30.11,1.8,Calm,Calm,-,N/A,,Clear,0,2013-10-04 07:55:00
4:15 AM,64.4,62.6,94,30.10,10.0,North,5.8,-,N/A,,Scattered Clouds,350,2013-10-04 08:15:00
4:35 AM,66.2,62.6,88,30.11,5.0,North,5.8,-,N/A,,Scattered Clouds,350,2013-10-04 08:35:00
4:55 AM,66.2,62.6,88,30.11,5.0,North,5.8,-,N/A,,Partly Cloudy,350,2013-10-04 08:55:00
5:15 AM,66.2,64.4,94,30.10,5.0,North,4.6,-,N/A,,Partly Cloudy,360,2013-10-04 09:15:00
5:35 AM,66.2,62.6,88,30.10,3.0,North,4.6,-,N/A,,Scattered Clouds,350,2013-10-04 09:35:00
5:55 AM,66.2,64.4,94,30.10,5.0,North,5.8,-,N/A,,Mostly Cloudy,360,2013-10-04 09:55:00
6:45 AM,68.0,64.4,88,30.11,6.0,North,5.8,-,N/A,,Mostly Cloudy,360,2013-10-04 10:45:00
7:45 AM,69.8,66.2,88,30.12,7.0,North,5.8,-,N/A,,Mostly Cloudy,360,2013-10-04 11:45:00
8:50 AM,69.8,66.2,88,30.14,7.0,North,5.8,-,N/A,,Mostly Cloudy,350,2013-10-04 12:50:00
9:45 AM,71.6,68.0,88,30.15,7.0,North,5.8,-,N/A,,Mostly Cloudy,350,2013-10-04 13:45:00
10:50 AM,77.0,69.8,78,30.15,10.0,ENE,5.8,-,N/A,,Mostly Cloudy,60,2013-10-04 14:50:00
11:50 AM,82.4,69.8,66,30.15,10.0,NNE,9.2,-,N/A,,Scattered Clouds,30,2013-10-04 15:50:00
12:47 PM,82.4,69.8,66,30.13,10.0,ESE,11.5,-,N/A,,Scattered Clouds,120,2013-10-04 16:47:00
1:45 PM,82.4,66.2,58,30.11,10.0,SSE,11.5,-,N/A,,Mostly Cloudy,150,2013-10-04 17:45:00
2:45 PM,82.4,68.0,62,30.09,10.0,SSE,11.5,-,N/A,,Mostly Cloudy,150,2013-10-04 18:45:00
4:50 PM,80.6,68.0,65,30.08,10.0,SSE,13.8,-,N/A,,Scattered Clouds,150,2013-10-04 20:50:00
5:50 PM,78.8,68.0,69,30.08,10.0,SSE,11.5,-,N/A,,Partly Cloudy,150,2013-10-04 21:50:00
6:45 PM,77.0,69.8,78,30.09,10.0,South,11.5,-,N/A,,Clear,170,2013-10-04 22:45:00
7:45 PM,73.4,69.8,88,30.09,10.0,SSE,4.6,-,N/A,,Clear,150,2013-10-04 23:45:00
8:45 PM,73.4,69.8,88,30.10,10.0,SSE,6.9,-,N/A,,Clear,160,2013-10-05 00:45:00
9:45 PM,69.8,66.2,88,30.11,10.0,SSW,4.6,-,N/A,,Clear,210,2013-10-05 01:45:00
10:45 PM,69.8,68.0,94,30.12,10.0,Calm,Calm,-,N/A,,Clear,0,2013-10-05 02:45:00
11:15 PM,68.0,64.4,88,30.13,0.8,Calm,Calm,-,N/A,,Unknown,0,2013-10-05 03:15:00
11:35 PM,68.0,66.2,94,30.13,2.5,West,3.5,-,N/A,,Clear,280,2013-10-05 03:35:00
11:55 PM,68.0,64.4,88,30.13,1.5,Calm,Calm,-,N/A,,Clear,0,2013-10-05 03:55:00